Terminal Aerodrome Forecast
Issued by NWS Memphis, TN

Home | Current Version | Previous Version | Text Only | Print | Product List | Glossary On
Versions: 1 2 3 4 5 6 7 8 9 10 11 12 13 14 15 16 17 18 19 20 21 22 23 24 25
000
FTUS44 KMEG 212300
TAFMEM
TAF
KMEM 212327Z 2200/2224 21007KT P6SM FEW050 SCT250
     FM220400 21006KT P6SM SKC
     FM221400 24008KT P6SM SCT025=

USA.gov is the U.S. government's official web portal to all federal, state and local government web resources and services.